Theta_e
334 332 328 325 320 322 321 322 325 324 324 322 322 319 318 317 316 319 317 316 317 315
335 332 326 321 322 324 326 323 324 324 324 322 321 321 319 316 316 317 317 317 317 316
332 328 323 320 320 324 326 324 323 323 322 322 321 320 320 318 318 317 316 316 317 318
330 326 321 319 320 323 328 324 322 323 323 321 321 321 321 320 318 316 317 318 317 317
331 330 323 322 323 326 327 326 324 324 322 321 320 320 319 318 317 317 315 316 317 316
332 324 325 324 323 325 326 328 326 324 321 320 320 318 318 316 317 316 317 317 316 316
332 330 327 325 322 323 324 324 326 323 322 322 319 318 317 315 315 317 315 317 318 317
335 334 328 326 324 322 321 322 322 320 320 320 318 315 313 312 312 315 316 317 317 318
334 333 331 328 326 320 319 321 319 318 317 316 315 306 307 310 311 313 315 315 317 317
330 328 328 326 319 326 319 318 318 320 320 321 319 304 305 307 311 312 313 316 317 315
331 329 327 324 324 322 315 317 319 319 322 319 318 304 304 306 314 312 313 314 317 318
331 329 327 326 328 325 318 315 317 316 317 315 314 304 303 306 314 314 314 316 317 318
330 330 330 328 327 327 320 316 314 313 314 312 312 303 302 305 314 311 313 318 317 306
329 329 328 329 329 325 321 315 314 312 313 312 312 308 302 301 313 311 313 314 317 317
Wind_Speed
13 10 10 11 8 9 9 9 11 10 9 8 6 5 4 5 5 3 4 4 4 3
11 12 9 10 9 9 9 8 11 11 10 9 8 7 6 5 5 4 5 4 4 7
10 9 8 7 8 9 10 11 13 12 10 10 9 8 7 7 7 7 6 7 5 6
8 9 9 9 9 9 12 13 13 13 12 11 10 10 9 8 6 9 9 8 6 7
8 9 10 11 11 10 11 11 12 12 12 11 10 8 9 9 9 10 10 10 9 9
7 9 11 11 9 10 12 13 13 13 12 12 9 9 8 8 10 9 11 11 10 9
7 9 9 9 10 8 8 8 11 10 11 12 6 11 8 3 3 10 10 12 11 9
6 7 8 10 10 9 7 6 5 6 6 7 9 6 7 5 2 11 10 13 10 10
5 6 8 9 9 10 9 11 9 10 11 10 7 15 11 7 4 9 11 14 10 10
3 5 6 7 5 11 9 7 10 12 12 14 10 11 12 8 5 8 12 13 11 9
3 6 6 8 10 8 6 10 9 10 11 10 10 13 10 7 6 8 13 13 12 11
5 5 6 8 8 8 8 7 10 8 11 10 10 11 9 6 7 10 14 15 13 12
7 7 8 7 7 6 8 8 7 8 9 9 9 13 10 7 6 9 10 10 9 6
9 6 6 9 7 7 8 8 10 10 8 9 8 9 13 10 8 8 8 8 8 8
Wind_Direction
199 203 202 187 193 198 199 188 166 195 186 167 171 174 185 206 226 176 206 209 289 201
215 208 193 180 203 204 203 178 177 188 195 178 174 191 180 236 217 204 217 183 209 264
221 209 191 174 187 207 196 192 181 189 196 188 181 193 197 217 210 222 224 237 200 257
200 200 188 190 196 216 200 192 187 191 196 195 189 200 208 235 238 221 237 246 233 243
208 196 191 200 208 213 215 204 202 195 200 200 202 201 214 226 243 230 235 238 244 255
205 194 203 205 208 208 210 208 208 202 202 202 202 205 215 218 244 258 252 249 254 262
228 219 215 205 202 208 221 223 214 208 206 212 168 214 204 149 322 274 266 261 256 262
233 218 224 210 206 204 204 206 185 195 223 191 197 192 171 121 254 280 263 265 251 247
251 235 222 228 214 204 199 201 194 198 205 200 187 147 143 131 233 279 280 257 253 257
265 243 240 234 204 231 211 197 202 209 207 203 179 157 137 145 227 265 275 282 255 263
245 244 238 224 229 220 181 198 212 208 202 182 177 161 145 146 249 265 270 278 264 257
316 276 256 249 251 232 219 203 206 206 199 179 175 148 143 169 241 262 266 265 246 253
331 307 299 280 254 243 220 212 202 198 193 169 151 155 159 199 237 256 257 260 263 170
337 326 299 298 287 244 229 211 206 201 181 163 150 165 187 197 234 248 271 276 265 247